星链-31020 (STARLINK-31020 )

导读

STARLINK-31020是美国SpaceX公司星链(Starlink)项目的卫星,于2023年12月7日发射,是星链大规模低轨卫星互联网星座的组成部分。星链旨在通过近地轨道卫星群为全球提供高速低延迟宽带服务,STARLINK-31020延续了星链技术架构,助力拓展全球网络覆盖,服务偏远地区连接、特殊场景通信等应用,同时也延续了星链部署带来的轨道利用与天文观测相关讨论。

基本信息
目录编号:
58509
目录名称:
STARLINK-31020
国际标识:
2023-191B
轨道中心:
EARTH
卫星名称:
星链-31020
卫星全名:
星链-31020 (STARLINK-31020 )
卫星状态:
在轨 (已飞行921 天)
发射日期:
2023-12-07 UTC
国别 :
美国 (US)
星等 :
--
轨道信息
数据来源 国际轨道数据 AOE轨道数据
星历时间 2026-06-14T22:38:21+0800
16小时前
查看轨道信息
2026-06-15T08:00:00+0800
7小时前
查看轨道信息
半长轴 6861.211km 6861.147km
偏心率 0.0001741 0.0001386
轨道倾角 43.001° 43.006°
近地点辐角 267.200° 262.211°
升交点赤经 282.930° 280.730°
平近点角 92.865° 85.300°
近地点 481.879km 482.059km
远地点 484.269km 483.961km
周期 94.267分钟 94.266分钟
每日圈数 15.275719 15.275933
详细信息
固有亮度:
5
最大亮度:
0.3
卫星平台:
Starlink v2.0 mini
覆盖范围:
全球
运营商:
太空探索技术公司
运营商所在国:
美国
制造商(研发单位):
太空探索技术公司
制造商所在国:
美国
使用方式:
暂无
卫星简介
星链(Starlink)计划是由太空探索技术公司(SpaceX)提出的一个巨型低轨卫星互联网星座项目,计划在2019年至2024年间在太空搭建由约1.2万颗卫星组成的“星链”网络,其中1584颗将部署在地球上空550千米处的近地轨道,并从2020年开始工作。该卫星仍在工作。
2D轨道图
3D轨道图
轨道高度分析图
轨道倾角分析图
轨道综合分析图
查看轨道综合分析图